Location: 10033 Water Well
(34.0865°N, 106.8959°W)
Time: 22:32:41
(UTC+00:00)

NOSS 3-2 (C) - Pass Details

Date: 13 January 2026
Orbit: 672 x 1536 km, 63.4° (Epoch: 2 January)

Event Time Altitude Azimuth Distance (km) Brightness Sun altitude
Rises 00:39:30 0° 332° (NNW) 4,001 6.8 -4.8°
Reaches altitude 10° 00:42:05 10° 337° (NNW) 3,152 6.2 -5.2°
Maximum altitude 00:49:49 62° 57° (ENE) 1,527 4.3 -6.7°
Drops below altitude 10° 00:58:50 10° 137° (SE) 3,650 6.3 -8.5°
Sets 01:02:01 0° 140° (SE) 4,666 6.8 -9.1°
